Dewpoint
49 49 49 49 48 49 48 49 49 50 49 48 48 48 49 48 49 50 50 50 50 50 49 49 50 49 49 50 49 50 51 45 42 42 40 44 51 52 52 54 53 52 52 42 39 33 29 29 29 30 29 31 32 30 26 22 19 19 16 14 14 15 14 14 14 14 14 13 13 13 13 13 12 12 13 19 13 22 17 12 21 52 56 55 59 61 61 62
49 49 49 48 48 49 49 49 49 48 48 48 48 48 49 49 49 50 50 50 50 50 49 48 49 50 49 49 50 51 48 43 41 41 40 51 53 52 53 53 52 52 49 39 35 34 31 30 28 28 26 27 30 27 23 18 17 15 17 15 13 14 14 15 14 14 13 13 13 13 13 12 12 12 15 12 13 13 13 12 47 57 58 59 59 60 62 63
49 49 49 49 49 49 49 49 48 48 49 49 48 48 49 50 50 50 50 50 49 49 49 49 49 49 50 49 50 51 46 42 40 37 47 53 53 51 53 51 52 51 46 36 34 32 31 30 30 31 27 24 26 25 20 16 15 14 15 14 13 14 14 15 14 14 14 13 12 12 12 12 12 12 13 10 12 13 12 21 24 57 57 58 59 60 62 63
50 50 50 50 49 50 50 50 49 49 49 49 49 49 50 50 50 50 50 50 49 49 49 49 49 49 50 49 50 48 44 40 37 44 46 53 53 51 51 50 50 49 38 34 34 32 30 28 28 32 32 29 23 24 18 15 13 13 13 13 14 14 13 13 14 14 14 13 12 12 12 11 11 12 11 10 10 14 17 15 14 40 57 58 59 60 62 63
50 50 50 50 50 50 50 50 50 50 48 48 48 48 49 49 49 50 49 49 49 49 49 49 49 49 48 49 50 45 40 35 38 43 49 52 51 51 52 50 50 46 38 36 36 35 32 28 25 28 32 32 27 21 19 15 13 12 11 12 13 13 13 14 14 14 14 13 13 12 11 10 11 12 12 10 9 13 12 14 15 23 57 58 59 60 62 62
49 49 50 50 49 50 50 50 50 50 49 49 48 48 49 49 48 48 49 49 49 49 49 49 49 49 49 49 46 42 37 21 29 44 52 52 51 53 51 50 51 49 41 33 32 32 27 25 26 26 30 30 31 24 18 15 13 9 9 10 11 12 12 14 14 13 13 13 12 11 11 11 11 11 11 10 10 16 13 13 16 49 52 59 60 61 62 62
47 48 49 49 49 49 50 50 50 50 50 50 49 49 49 49 50 49 49 50 49 49 49 49 49 49 48 49 42 40 37 35 34 47 54 53 52 52 52 51 50 44 37 30 26 23 20 23 26 25 26 28 29 30 29 15 13 10 9 9 9 10 11 13 12 13 13 14 13 11 11 10 11 10 10 10 12 10 19 13 49 56 59 60 60 61 61 61
46 46 46 46 47 48 48 49 49 50 50 49 49 49 49 49 49 50 49 49 49 49 48 49 49 48 48 43 40 34 34 30 43 48 55 54 51 49 50 46 37 30 23 21 22 21 20 21 26 27 26 26 27 27 28 27 16 9 9 10 9 9 9 11 11 11 12 12 12 11 10 10 10 10 10 10 10 10 15 13 50 55 58 59 60 61 62 62
46 45 46 45 45 46 47 47 47 48 49 48 49 47 48 48 48 48 48 48 48 48 48 48 47 48 48 43 39 34 31 26 43 47 51 51 47 44 43 35 25 20 19 21 22 20 18 20 22 28 27 26 26 25 26 24 21 15 9 9 9 8 8 8 9 10 11 12 11 11 10 11 11 12 10 10 11 11 14 11 47 54 56 59 60 62 63 62
47 47 48 48 48 47 48 47 47 48 48 48 47 46 47 47 48 47 47 47 48 47 47 47 47 47 43 40 36 31 28 33 38 46 45 43 38 27 24 22 22 19 19 19 21 21 19 17 17 19 22 24 27 27 27 26 22 17 12 10 7 7 7 8 8 8 10 11 11 10 11 10 11 11 9 10 11 12 11 13 26 51 55 57 60 63 64 64
46 47 47 47 47 47 48 48 48 49 49 48 47 46 47 48 47 46 47 47 47 47 47 47 46 46 41 39 35 32 30 27 28 29 28 29 30 25 23 23 21 20 20 21 20 20 18 18 18 20 24 24 26 26 26 26 26 23 19 13 8 7 6 7 6 6 7 9 11 12 11 11 10 9 9 9 12 13 11 10 10 36 50 54 60 62 64 64
46 46 47 48 48 48 48 48 47 48 49 49 49 48 48 48 47 48 47 48 48 47 48 46 46 44 41 39 36 34 33 32 31 30 30 28 27 26 24 25 27 26 23 20 20 20 19 18 18 18 21 23 23 24 24 26 25 24 22 19 14 8 5 5 5 6 6 8 13 13 12 11 10 8 8 10 12 11 11 10 13 13 21 49 58 63 64 64
47 48 48 48 48 48 48 48 47 47 47 48 48 48 49 48 48 48 48 48 48 48 48 48 46 44 40 36 35 37 37 36 34 33 33 31 28 27 27 28 28 27 24 21 19 20 19 18 18 18 19 20 21 22 25 26 25 26 26 19 16 11 6 5 5 5 5 8 11 12 9 9 10 9 8 9 13 12 9 11 14 21 28 48 58 63 64 64
46 47 48 48 48 48 48 48 49 48 48 48 47 48 48 48 48 48 48 48 48 48 47 48 46 44 41 37 36 34 35 36 35 32 30 30 29 29 30 28 27 25 23 21 19 18 18 17 17 18 19 20 20 25 24 24 26 23 24 20 15 11 7 5 4 5 6 8 8 9 8 8 8 9 8 11 10 9 11 15 16 28 41 51 60 63 64 64
46 46 46 47 48 48 48 48 48 48 48 47 47 48 48 48 48 49 50 49 49 49 48 48 44 43 38 36 37 37 47 40 34 31 30 29 28 27 28 27 25 23 21 19 18 18 17 17 16 16 17 21 23 23 22 24 25 26 24 19 15 12 9 5 7 6 6 7 7 7 6 6 7 8 8 11 25 21 12 14 22 28 28 55 61 63 64 64
47 47 47 48 48 47 47 47 47 47 48 48 48 49 49 49 49 49 50 49 50 50 48 43 41 40 35 32 32 40 38 38 36 34 32 31 29 27 27 25 22 22 21 18 17 17 17 16 15 16 16 17 20 21 21 22 23 25 25 21 14 13 10 5 4 5 7 7 7 7 5 5 4 8 9 22 27 30 19 19 24 34 40 55 62 63 64 64
46 47 47 47 47 46 47 47 48 48 48 48 48 49 49 49 49 49 49 50 48 48 46 39 39 39 33 31 34 30 27 29 31 30 31 31 29 27 24 21 19 19 19 19 16 16 16 14 18 18 16 14 19 20 20 21 22 23 24 24 18 12 11 7 4 3 5 6 6 7 6 5 7 8 13 28 24 27 16 19 29 30 35 45 61 63 63 63
46 47 47 47 47 48 47 48 48 49 49 48 48 48 47 49 49 49 48 49 46 42 43 42 40 36 34 36 32 31 27 25 25 27 26 28 28 25 22 21 21 20 18 16 17 14 15 14 16 16 16 14 16 19 19 17 21 22 23 23 19 13 11 8 4 2 3 6 6 6 6 6 4 8 9 13 27 21 15 17 22 22 22 39 55 62 63 63
46 46 46 46 47 48 48 49 48 49 48 48 48 48 47 47 45 44 42 40 40 39 36 37 36 28 22 27 33 32 29 28 27 25 22 21 23 23 23 25 20 18 16 14 14 14 15 15 18 17 13 14 14 17 18 18 20 22 22 21 17 14 11 10 7 4 2 3 6 6 5 5 4 3 9 16 18 23 22 21 23 25 21 23 40 56 62 63
46 47 47 46 46 47 48 48 48 48 48 46 44 42 42 41 39 38 40 40 37 36 33 31 35 32 28 28 27 28 29 27 25 24 22 21 21 20 19 19 18 18 16 16 14 14 16 15 15 13 13 12 14 16 18 19 19 19 20 20 17 14 12 12 9 5 3 1 3 5 5 6 5 3 8 12 14 15 13 18 26 23 24 22 33 46 61 62
47 47 47 48 48 47 48 48 48 47 47 46 43 41 38 37 31 27 31 31 32 35 36 35 32 31 30 29 25 25 23 23 24 23 24 24 21 19 18 18 18 17 16 16 15 20 16 16 16 14 13 12 12 15 16 16 17 17 18 17 16 14 11 11 9 7 4 5 5 7 5 5 7 8 9 12 13 11 13 11 17 24 22 23 32 42 60 61
45 46 46 47 48 48 48 47 47 47 48 45 43 40 40 40 38 34 32 29 31 31 30 29 28 26 26 26 26 26 25 22 23 24 24 23 19 18 18 17 17 15 17 16 17 16 15 15 15 15 14 12 11 12 14 15 14 15 17 17 16 15 12 11 10 7 4 4 5 6 6 6 9 14 13 13 11 11 10 15 12 16 25 31 36 38 59 62
46 46 46 46 47 46 47 46 46 47 45 43 42 41 39 38 35 39 37 34 32 33 32 32 30 29 28 29 29 29 25 23 22 24 23 23 21 19 18 17 15 15 15 15 14 15 13 11 13 15 14 12 10 9 10 12 13 13 15 17 16 16 14 10 9 9 6 5 5 8 7 8 11 15 15 13 10 13 19 24 29 27 21 29 37 40 59 62
46 46 46 47 47 46 47 46 47 45 44 43 42 40 39 38 38 38 35 32 31 31 32 31 31 29 28 28 29 28 25 23 23 22 23 22 20 20 19 18 14 13 14 14 13 13 12 12 12 11 12 12 10 8 8 11 13 13 13 16 16 16 15 13 7 8 6 5 5 6 10 12 10 12 12 13 15 17 21 21 21 35 31 27 40 44 61 61
45 45 45 46 46 46 46 47 44 43 41 37 36 37 37 39 41 40 35 33 31 31 32 30 31 29 29 30 26 25 25 23 20 21 22 20 19 19 19 17 12 11 12 14 14 13 13 14 13 10 8 9 9 8 7 10 13 14 14 14 16 15 15 16 10 6 7 8 5 3 8 9 12 12 11 11 11 14 15 15 13 18 31 27 36 45 59 61
45 45 45 45 45 45 46 44 40 41 39 37 36 38 40 40 42 43 36 30 26 26 28 26 29 23 27 21 23 22 21 18 21 22 23 21 24 20 20 16 13 12 11 10 10 10 9 10 11 8 7 6 7 7 7 9 12 15 14 14 14 15 15 15 15 6 6 5 4 5 2 8 14 10 11 10 8 9 16 16 14 16 29 28 34 46 58 60
44 45 45 45 45 45 43 39 43 41 38 36 39 40 39 42 45 40 32 28 24 30 25 33 22 23 26 23 23 23 19 19 22 23 21 24 22 26 25 22 15 14 14 20 13 8 8 11 9 8 8 7 5 6 7 9 12 13 15 15 13 13 14 14 14 12 7 8 6 0 0 9 11 11 12 11 10 9 11 14 18 25 27 28 32 46 57 59
44 44 44 45 46 46 43 43 43 40 37 38 41 39 42 42 43 41 33 18 17 32 27 30 29 31 28 27 31 35 25 23 21 22 25 23 26 31 25 18 19 17 14 13 10 11 12 9 7 11 11 8 6 6 7 8 10 14 16 16 13 12 13 14 14 14 13 7 5 3 -2 -0 9 14 14 13 11 11 10 12 21 27 28 30 32 54 58 59
44 44 45 45 46 47 47 44 42 40 41 41 43 40 48 44 41 33 27 15 29 28 36 36 43 37 33 30 33 33 28 28 24 24 23 24 24 21 21 19 19 24 21 14 10 9 8 7 12 11 11 10 9 9 10 9 10 13 15 16 14 13 12 13 13 13 14 13 8 2 -1 -3 -0 17 13 13 11 11 11 12 20 26 29 31 36 57 59 59
44 44 45 45 46 45 46 45 44 44 44 44 43 42 44 43 35 28 24 17 35 23 33 33 29 30 30 30 29 28 27 27 27 26 24 26 28 21 19 18 16 15 13 13 11 10 10 16 19 14 14 13 11 9 11 11 11 14 16 15 13 12 10 12 14 14 15 15 12 2 -2 -3 4 13 11 15 14 11 12 14 19 24 29 31 38 58 59 59
45 45 45 46 43 43 43 43 45 45 45 45 44 43 41 39 30 24 19 26 32 31 33 37 32 33 30 28 29 31 30 33 28 26 25 23 22 23 21 15 14 13 13 12 12 10 8 5 10 16 20 20 21 20 13 14 13 13 14 15 13 12 12 12 14 14 14 14 11 6 -0 -1 2 12 9 10 17 12 12 13 17 25 29 31 43 58 59 60
45 45 46 45 44 46 42 42 44 44 45 46 44 41 37 28 31 20 17 37 24 28 27 29 32 32 31 31 30 30 30 29 28 25 25 29 28 25 21 18 13 10 11 11 9 10 7 9 15 15 19 17 17 19 18 15 14 12 14 15 13 11 14 14 12 14 14 11 12 6 2 3 2 13 13 10 10 12 12 11 14 26 30 32 49 57 59 60
45 45 46 46 46 45 44 44 46 47 46 45 42 40 31 25 19 23 25 27 20 30 29 33 33 33 32 31 30 30 34 25 27 25 26 27 25 25 23 16 13 12 9 16 10 11 15 13 14 16 18 20 18 18 19 17 15 12 14 16 13 11 11 11 12 11 13 14 14 11 3 4 8 12 13 11 12 11 12 15 15 27 32 33 50 56 58 59
45 45 43 45 44 44 46 49 46 46 45 45 40 35 31 24 22 28 27 26 26 37 35 34 33 32 32 29 29 29 25 28 28 24 27 25 24 22 21 17 17 12 10 25 20 18 15 17 19 18 18 20 19 20 21 18 18 16 16 16 14 11 10 10 10 11 12 13 13 11 1 3 4 17 11 13 15 13 11 14 18 27 32 33 51 55 57 58
45 45 45 46 46 45 46 46 48 47 45 41 37 32 25 24 28 28 28 30 32 34 31 35 32 32 30 30 31 28 27 23 23 22 22 20 21 21 21 19 18 15 14 13 23 23 20 18 20 20 20 22 20 21 21 18 20 23 16 16 14 13 14 9 15 15 16 15 14 8 11 9 9 18 14 11 10 15 15 15 22 28 33 34 48 54 55 57
44 44 48 46 46 47 46 46 45 46 42 40 33 29 25 28 27 32 31 36 35 31 32 33 32 29 27 26 24 25 29 23 22 23 23 23 18 19 20 17 14 11 19 18 27 22 23 21 22 23 19 21 22 22 20 21 22 24 20 13 13 13 12 15 17 23 18 10 16 13 11 21 10 13 14 12 10 11 15 15 19 29 33 35 46 53 53 54
41 43 43 46 44 46 47 46 45 44 43 39 32 26 29 31 33 33 35 35 35 33 31 27 27 26 25 23 24 24 26 23 22 22 19 21 19 16 15 14 13 9 11 22 25 26 22 21 23 26 24 20 23 24 24 23 23 23 21 14 13 13 12 16 14 12 14 11 14 10 10 9 4 10 17 11 9 9 16 15 18 31 34 35 44 51 52 54
41 42 43 43 41 43 43 44 43 42 42 36 30 32 33 31 36 37 39 39 36 35 31 30 29 30 27 22 25 26 24 20 22 18 19 18 18 17 14 13 13 12 10 22 20 29 27 24 25 25 25 22 24 27 29 28 30 26 23 23 13 17 13 15 12 13 11 10 10 7 11 9 4 15 18 11 9 14 17 18 25 31 34 36 42 49 52 56
42 42 41 43 40 41 42 43 43 42 38 33 31 31 33 33 34 35 38 39 37 32 30 31 29 32 27 23 23 26 26 16 18 19 14 18 17 17 14 13 12 15 15 22 20 32 31 23 24 25 24 24 27 32 25 24 25 25 25 22 22 20 19 13 18 18 18 16 8 8 8 10 5 11 18 10 11 21 17 25 29 33 35 39 41 47 53 56
42 42 40 46 39 41 43 43 42 42 36 30 31 32 33 34 34 38 40 40 35 33 32 31 34 31 32 31 30 29 27 18 13 14 12 18 13 21 18 11 12 16 18 22 24 28 30 35 23 28 26 26 24 25 23 23 23 23 21 20 20 23 16 14 22 10 18 16 15 15 6 14 19 16 18 18 23 20 18 27 33 35 36 39 42 50 55 56
42 41 41 45 41 42 43 42 39 37 34 35 34 34 36 35 36 36 39 42 41 39 36 34 34 32 33 32 31 28 25 22 15 16 12 13 11 16 17 11 12 14 17 19 25 31 29 32 26 27 28 23 23 25 25 24 22 23 23 22 19 18 16 12 17 10 10 12 12 12 14 16 24 15 22 19 26 22 18 24 33 35 38 41 45 53 55 56
40 38 43 46 43 42 40 37 37 39 37 34 32 34 33 37 37 36 37 43 40 39 41 37 37 35 34 33 33 31 28 26 22 18 12 17 18 13 14 13 12 14 17 24 26 30 34 34 30 28 27 25 23 25 26 27 29 26 26 22 17 15 15 14 16 15 16 9 13 19 18 15 23 24 21 24 31 30 27 32 35 36 39 42 47 53 55 56
39 36 49 48 44 41 39 36 35 32 33 32 35 35 36 37 38 37 35 37 37 39 38 36 36 34 35 33 34 34 33 29 26 22 18 15 17 15 13 13 12 15 18 26 32 38 34 32 27 28 26 26 35 33 28 31 30 25 22 21 18 15 12 17 23 22 13 17 10 11 11 23 25 35 24 31 32 32 33 34 36 39 41 43 50 53 54 57
36 37 41 49 48 44 39 31 30 29 33 34 35 34 36 36 36 35 35 34 39 36 34 35 35 38 35 37 35 33 35 27 26 25 23 18 19 23 19 14 12 13 14 24 32 37 29 30 29 24 22 24 28 32 29 32 31 26 25 21 19 17 11 13 15 27 15 23 18 18 14 20 30 36 33 30 31 31 30 34 37 39 42 48 51 53 56 58
36 39 39 45 47 44 37 37 34 32 33 34 34 33 34 35 38 39 36 35 39 39 37 34 36 38 38 39 36 36 36 33 30 30 30 28 26 26 22 18 17 13 18 33 42 35 35 32 29 22 18 16 17 19 20 21 23 26 23 21 20 19 16 15 17 25 18 22 17 19 16 26 32 32 26 26 28 30 31 33 37 39 45 51 54 56 57 58
36 30 34 39 44 43 41 40 37 35 33 34 32 33 34 33 35 43 39 37 40 40 39 38 39 40 38 37 35 35 34 35 31 30 30 30 30 29 28 28 27 11 35 40 37 35 34 36 33 30 26 22 23 23 23 23 23 20 20 19 18 17 13 14 27 23 22 27 18 25 19 25 30 28 24 23 27 30 29 39 41 45 50 53 55 57 57 58
38 33 30 30 34 35 33 33 33 35 34 35 31 34 33 34 34 35 39 37 38 37 39 38 37 36 34 35 34 35 36 35 36 34 32 30 32 30 29 28 25 24 40 37 37 36 38 32 31 31 31 30 28 27 26 26 21 20 18 18 17 16 17 24 23 22 33 24 26 33 31 28 28 29 27 26 29 33 32 45 46 49 52 54 55 57 56 58
29 31 34 35 32 29 30 30 32 32 33 33 34 35 34 31 32 32 36 37 40 40 36 37 37 38 36 34 35 32 32 33 33 29 35 32 31 31 29 26 26 26 27 30 32 37 35 28 33 32 31 29 29 27 25 26 24 20 17 18 18 17 18 20 27 29 37 28 27 35 38 35 39 42 44 42 43 37 35 46 49 50 52 53 55 56 57 57
33 32 34 34 29 30 31 32 33 34 35 35 35 35 31 31 31 34 38 36 37 38 39 32 33 35 35 37 35 31 34 31 26 32 32 33 35 35 32 31 27 19 19 28 35 42 38 31 33 32 30 31 30 28 26 24 28 26 22 21 24 23 19 26 37 37 37 37 38 38 40 40 42 41 43 44 47 47 38 46 49 49 50 53 55 56 57 57
30 31 31 34 33 32 33 34 34 33 32 35 30 33 32 32 32 34 35 35 34 37 38 35 37 39 37 36 35 32 32 36 35 29 36 36 36 35 32 31 27 23 20 32 36 40 38 29 33 32 31 31 31 30 28 24 23 24 24 19 19 15 13 25 36 36 36 37 40 39 37 36 40 45 45 46 47 45 41 48 48 49 50 52 55 55 56 57
34 35 34 32 31 32 33 32 31 31 30 31 31 33 33 33 33 35 35 38 40 37 39 37 39 39 37 38 38 36 38 39 38 38 39 39 34 37 30 33 28 33 30 36 39 40 38 29 36 34 29 29 30 29 29 28 26 26 26 24 21 17 24 34 33 36 35 35 39 38 37 38 41 45 46 47 48 46 45 47 47 48 49 51 53 55 56 56
35 36 36 33 30 32 29 30 29 30 29 32 33 33 33 34 34 35 33 39 41 42 42 41 40 40 38 38 38 39 41 41 40 40 40 39 39 38 35 31 30 33 34 34 40 38 38 35 29 30 29 28 30 31 31 31 28 24 23 25 26 30 32 33 31 34 38 40 36 32 35 41 42 44 45 47 49 48 47 46 47 47 48 49 51 54 55 56